Location: Kikino
(54.4440°N, 112.0940°W)
Time: 18:37:46
(UTC+00:00)

A-11 Canister half - Pass Details

Date: 26 May 2024
Orbit: 1525 x 1683 km, 47.3° (Epoch: 12 June)

Event Time Altitude Azimuth Distance (km) Brightness Sun altitude
Rises 07:39:37 0° 271° (W) 4,725 11.5 -14.3°
Reaches altitude 10° 07:42:44 10° 267° (W) 3,758 11.0 -14.2°
Maximum altitude 07:51:51 53° 194° (SSW) 1,912 9.1 -14.1°
Drops below altitude 10° 08:01:16 10° 122° (ESE) 3,875 10.9 -13.9°
Sets 08:04:32 0° 118° (ESE) 4,880 11.4 -13.9°
